| time (UTC) | temp F | wind direction | speed MPH | gust MPH | rain 1hr in | rain 24hr in | rain mn in | humidity % | barometer mb |
| 20260507144519 | 53 | 261 | 5.0 | 13.0 | 0.00 | 0.00 | 0.00 | 38 | 1012.4 |
| 20260507143002 | 53 | 273 | 3.0 | 15.0 | 0.00 | 0.00 | 0.00 | 40 | 1012.4 |
| 20260507141602 | 53 | 287 | 6.0 | 13.0 | 0.00 | 0.00 | 0.00 | 42 | 1012.7 |
| 20260507140056 | 51 | 267 | 7.0 | 12.0 | 0.00 | 0.00 | 0.00 | 43 | 1013.0 |
| 20260507134550 | 52 | 218 | 4.0 | 9.0 | 0.00 | 0.01 | 0.00 | 49 | 1013.0 |
| 20260507133100 | 50 | 232 | 2.0 | 7.0 | 0.00 | 0.01 | 0.00 | 53 | 1013.1 |
| 20260507131550 | 50 | 221 | 2.0 | 5.0 | 0.00 | 0.01 | 0.00 | 55 | 1013.2 |
| 20260507130051 | 48 | 241 | 2.0 | 6.0 | 0.00 | 0.01 | 0.00 | 57 | 1013.2 |
| 20260507124533 | 48 | 242 | 1.0 | 4.0 | 0.00 | 0.02 | 0.00 | 59 | 1013.3 |
| 20260507123029 | 47 | 256 | 1.0 | 3.0 | 0.00 | 0.02 | 0.00 | 62 | 1013.1 |
| 20260507121525 | 45 | 268 | 2.0 | 4.0 | 0.00 | 0.02 | 0.00 | 63 | 1013.3 |
| 20260507120024 | 44 | 269 | 2.0 | 6.0 | 0.00 | 0.02 | 0.00 | 66 | 1013.1 |
| 20260507114517 | 43 | 310 | 1.0 | 3.0 | 0.00 | 0.07 | 0.00 | 67 | 1013.3 |
| 20260507113015 | 43 | 346 | 0.0 | 1.0 | 0.00 | 0.07 | 0.00 | 68 | 1013.1 |
| 20260507111509 | 41 | 346 | 0.0 | 1.0 | 0.00 | 0.07 | 0.00 | 69 | 1012.8 |
| 20260507110005 | 41 | 346 | 0.0 | 0.0 | 0.00 | 0.16 | 0.00 | 68 | 1012.8 |
| 20260507104601 | 40 | 346 | 0.0 | 0.0 | 0.00 | 0.16 | 0.00 | 68 | 1012.7 |
| 20260507103058 | 40 | 346 | 0.0 | 0.0 | 0.00 | 0.16 | 0.00 | 68 | 1012.4 |
| 20260507101603 | 40 | 346 | 0.0 | 1.0 | 0.00 | 0.16 | 0.00 | 67 | 1012.4 |
| 20260507100057 | 41 | 346 | 0.0 | 0.0 | 0.00 | 0.16 | 0.00 | 68 | 1012.5 |
| 20260507094552 | 41 | 346 | 0.0 | 0.0 | 0.00 | 0.28 | 0.00 | 67 | 1012.4 |
| 20260507093051 | 41 | 346 | 0.0 | 1.0 | 0.00 | 0.28 | 0.00 | 66 | 1012.4 |
| 20260507091550 | 41 | 346 | 0.0 | 0.0 | 0.00 | 0.28 | 0.00 | 64 | 1012.5 |
| 20260507090049 | 41 | 346 | 0.0 | 1.0 | 0.00 | 0.28 | 0.00 | 63 | 1012.4 |
| 20260507084556 | 42 | 346 | 0.0 | 0.0 | 0.00 | 0.39 | 0.00 | 62 | 1012.5 |
| 20260507083047 | 42 | 346 | 0.0 | 0.0 | 0.00 | 0.39 | 0.00 | 62 | 1012.4 |
| 20260507081546 | 42 | 346 | 0.0 | 0.0 | 0.00 | 0.39 | 0.00 | 62 | 1012.4 |
| 20260507080048 | 43 | 346 | 0.0 | 0.0 | 0.00 | 0.39 | 0.00 | 61 | 1012.4 |
| 20260507074542 | 43 | 346 | 0.0 | 0.0 | 0.00 | 0.39 | 0.00 | 60 | 1012.4 |
| 20260507073040 | 44 | 346 | 0.0 | 0.0 | 0.00 | 0.39 | 0.00 | 60 | 1012.4 |
| 20260507071539 | 44 | 346 | 0.0 | 1.0 | 0.00 | 0.39 | 0.00 | 61 | 1012.6 |
| 20260507070039 | 43 | 346 | 0.0 | 1.0 | 0.00 | 0.39 | 0.00 | 62 | 1012.6 |
| 20260507064538 | 43 | 346 | 0.0 | 1.0 | 0.00 | 0.43 | 0.00 | 63 | 1012.5 |
| 20260507063037 | 43 | 346 | 0.0 | 0.0 | 0.00 | 0.43 | 0.00 | 61 | 1012.7 |
| 20260507061535 | 44 | 346 | 0.0 | 0.0 | 0.00 | 0.43 | 0.00 | 61 | 1012.6 |
| 20260507060031 | 45 | 346 | 0.0 | 2.0 | 0.00 | 0.43 | 0.00 | 60 | 1012.6 |
| 20260507054536 | 45 | 346 | 0.0 | 3.0 | 0.00 | 0.47 | 0.00 | 59 | 1012.7 |
| 20260507053026 | 46 | 346 | 1.0 | 4.0 | 0.00 | 0.47 | 0.00 | 58 | 1012.8 |
| 20260507051529 | 46 | 347 | 1.0 | 4.0 | 0.00 | 0.47 | 0.00 | 57 | 1013.2 |
| 20260507050027 | 46 | 350 | 1.0 | 5.0 | 0.00 | 0.47 | 0.00 | 56 | 1013.2 |
| 20260507044521 | 46 | 346 | 1.0 | 2.0 | 0.00 | 0.48 | 0.00 | 55 | 1013.2 |
| 20260507043023 | 47 | 346 | 1.0 | 3.0 | 0.00 | 0.48 | 0.00 | 54 | 1013.1 |
| 20260507041518 | 47 | 11 | 1.0 | 4.0 | 0.00 | 0.48 | 0.00 | 55 | 1013.2 |
| 20260507040014 | 47 | 11 | 1.0 | 3.0 | 0.00 | 0.48 | 0.00 | 55 | 1013.0 |
| 20260507034513 | 47 | 13 | 1.0 | 3.0 | 0.00 | 0.48 | 0.48 | 55 | 1012.8 |
| 20260507033011 | 47 | 17 | 1.0 | 4.0 | 0.00 | 0.48 | 0.48 | 55 | 1012.9 |
| 20260507031511 | 47 | 360 | 0.0 | 4.0 | 0.00 | 0.48 | 0.48 | 55 | 1012.8 |
| 20260507030009 | 48 | 5 | 0.0 | 0.0 | 0.00 | 0.48 | 0.48 | 54 | 1012.4 |
| 20260507024511 | 48 | 5 | 0.0 | 3.0 | 0.00 | 0.48 | 0.48 | 54 | 1012.4 |
| 20260507023110 | 48 | 5 | 0.0 | 3.0 | 0.00 | 0.48 | 0.48 | 53 | 1012.5 |
| 20260507021505 | 48 | 348 | 1.0 | 2.0 | 0.00 | 0.48 | 0.48 | 53 | 1012.3 |
| 20260507020005 | 49 | 348 | 0.0 | 3.0 | 0.00 | 0.48 | 0.48 | 53 | 1011.9 |
| 20260507014503 | 49 | 15 | 0.0 | 4.0 | 0.00 | 0.48 | 0.48 | 52 | 1011.7 |
| 20260507013004 | 49 | 22 | 2.0 | 9.0 | 0.00 | 0.48 | 0.48 | 52 | 1011.3 |
| 20260507011600 | 49 | 14 | 0.0 | 4.0 | 0.00 | 0.48 | 0.48 | 53 | 1011.4 |
| 20260507010104 | 50 | 355 | 1.0 | 3.0 | 0.00 | 0.48 | 0.48 | 52 | 1011.3 |
| 20260507004606 | 50 | 355 | 1.0 | 5.0 | 0.00 | 0.48 | 0.48 | 50 | 1011.6 |
| 20260507003057 | 51 | 355 | 1.0 | 4.0 | 0.00 | 0.48 | 0.48 | 50 | 1011.7 |
| 20260507001559 | 51 | 360 | 1.0 | 4.0 | 0.00 | 0.48 | 0.48 | 50 | 1011.5 |
| 20260507000056 | 51 | 321 | 2.0 | 4.0 | 0.00 | 0.48 | 0.48 | 50 | 1011.3 |
| 20260506234556 | 52 | 324 | 1.0 | 5.0 | 0.00 | 0.48 | 0.48 | 49 | 1011.3 |
| 20260506233109 | 52 | 17 | 2.0 | 8.0 | 0.00 | 0.48 | 0.48 | 49 | 1011.3 |
| 20260506231600 | 52 | 321 | 4.0 | 14.0 | 0.00 | 0.48 | 0.48 | 49 | 1011.0 |
| 20260506230054 | 53 | 334 | 3.0 | 8.0 | 0.00 | 0.48 | 0.48 | 50 | 1010.8 |
| 20260506224553 | 53 | 324 | 4.0 | 8.0 | 0.00 | 0.48 | 0.48 | 50 | 1010.7 |
| 20260506223049 | 54 | 313 | 4.0 | 10.0 | 0.00 | 0.48 | 0.48 | 51 | 1010.4 |
| 20260506221549 | 54 | 360 | 4.0 | 10.0 | 0.00 | 0.48 | 0.48 | 52 | 1010.4 |
| 20260506220046 | 55 | 319 | 2.0 | 6.0 | 0.00 | 0.48 | 0.48 | 51 | 1010.1 |
| 20260506214549 | 54 | 360 | 2.0 | 5.0 | 0.00 | 0.48 | 0.48 | 54 | 1009.7 |
| 20260506213058 | 53 | 30 | 2.0 | 5.0 | 0.00 | 0.48 | 0.48 | 55 | 1009.7 |
| 20260506211546 | 54 | 325 | 2.0 | 8.0 | 0.00 | 0.48 | 0.48 | 57 | 1009.7 |
| 20260506210042 | 54 | 340 | 4.0 | 11.0 | 0.00 | 0.48 | 0.48 | 56 | 1009.4 |
| 20260506204540 | 54 | 286 | 3.0 | 10.0 | 0.00 | 0.48 | 0.48 | 57 | 1009.0 |
| 20260506203039 | 54 | 336 | 4.0 | 9.0 | 0.00 | 0.48 | 0.48 | 57 | 1009.2 |
| 20260506201542 | 54 | 336 | 1.0 | 8.0 | 0.00 | 0.48 | 0.48 | 59 | 1009.2 |
| 20260506200037 | 53 | 298 | 1.0 | 7.0 | 0.00 | 0.48 | 0.48 | 60 | 1009.2 |
| 20260506194537 | 53 | 340 | 3.0 | 8.0 | 0.00 | 0.48 | 0.48 | 61 | 1009.2 |
| 20260506193037 | 53 | 309 | 3.0 | 8.0 | 0.00 | 0.48 | 0.48 | 62 | 1009.4 |
| 20260506191535 | 53 | 302 | 1.0 | 5.0 | 0.00 | 0.48 | 0.48 | 63 | 1009.2 |
| 20260506190033 | 52 | 340 | 2.0 | 6.0 | 0.00 | 0.48 | 0.48 | 65 | 1009.1 |
| 20260506184544 | 52 | 309 | 5.0 | 12.0 | 0.00 | 0.48 | 0.48 | 64 | 1009.1 |
| 20260506183038 | 53 | 325 | 0.0 | 9.0 | 0.00 | 0.48 | 0.48 | 64 | 1008.9 |
| 20260506181539 | 52 | 335 | 4.0 | 9.0 | 0.00 | 0.48 | 0.48 | 65 | 1009.0 |
| 20260506180033 | 53 | 333 | 1.0 | 9.0 | 0.00 | 0.48 | 0.48 | 66 | 1008.9 |
| 20260506174528 | 52 | 338 | 2.0 | 8.0 | 0.00 | 0.48 | 0.48 | 65 | 1008.9 |
| 20260506173027 | 51 | 287 | 4.0 | 12.0 | 0.00 | 0.48 | 0.48 | 66 | 1008.8 |
| 20260506171526 | 52 | 310 | 5.0 | 11.0 | 0.00 | 0.48 | 0.48 | 67 | 1008.7 |
| 20260506170024 | 52 | 337 | 6.0 | 11.0 | 0.00 | 0.48 | 0.48 | 68 | 1008.5 |
| 20260506164529 | 50 | 24 | 6.0 | 11.0 | 0.00 | 0.48 | 0.48 | 79 | 1008.5 |
| 20260506163021 | 50 | 300 | 3.0 | 11.0 | 0.00 | 0.48 | 0.48 | 84 | 1008.3 |
| 20260506161521 | 49 | 355 | 4.0 | 10.0 | 0.00 | 0.48 | 0.48 | 84 | 1008.2 |
| 20260506160020 | 49 | 305 | 5.0 | 13.0 | 0.00 | 0.48 | 0.48 | 84 | 1008.1 |
| 20260506154516 | 48 | 332 | 5.0 | 12.0 | 0.00 | 0.48 | 0.48 | 85 | 1008.0 |
| 20260506153020 | 49 | 302 | 3.0 | 10.0 | 0.00 | 0.48 | 0.48 | 85 | 1007.7 |
| 20260506151513 | 49 | 11 | 4.0 | 8.0 | 0.00 | 0.48 | 0.48 | 85 | 1007.5 |
| 20260506150011 | 48 | 338 | 5.0 | 9.0 | 0.00 | 0.48 | 0.48 | 85 | 1007.0 |